一网星座-0143星 (ONEWEB-0143 )

导读 | 星芒AI

ONEWEB-0143 是 OneWeb 卫星通信公司发射的低轨通信卫星之一,属于其全球宽带互联网星座计划。该卫星运行在约 1200 公里的近地轨道,旨在为全球用户提供高速、低延迟的互联网服务,尤其关注航空、航海及偏远地区。该星座由数百颗卫星组成,ONEWEB-0143 是其中一部分,支持 Ku 和 Ka 频段通信,助力实现全球无缝连接。

基本信息
目录编号:
47289
目录名称:
ONEWEB-0143
国际标识:
2020-100AH
轨道中心:
EARTH
卫星名称:
一网星座-0143星
卫星全名:
一网星座-0143星 (ONEWEB-0143 )
卫星状态:
在轨 (已飞行1821 天)
发射日期:
2020-12-18 UTC
国别 :
英国 (GB)
星等 :
--
轨道信息
数据来源 国际轨道数据 AOE轨道数据
星历时间 2025-12-13T04:12:32+0800
13小时前
查看轨道信息
2025-12-10T05:00:00+0800
3天前
查看轨道信息
半长轴 7592.033km 7591.854km
偏心率 0.0001488 0.000171
轨道倾角 87.897° 87.895°
近地点辐角 96.920° 97.195°
升交点赤经 27.678° 28.271°
平近点角 263.210° 292.618°
近地点 1212.768km 1212.42km
远地点 1215.028km 1215.018km
周期 109.723分钟 109.719分钟
每日圈数 13.123984 13.124448
详细信息
平衡模式:
三轴稳定
覆盖范围:
全球
运营商:
一网卫星公司
运营商所在国:
英国
制造商(研发单位):
一网卫星公司
制造商所在国:
英国
使用方式:
暂无
卫星简介
OneWeb卫星网络由648颗重约125公斤的微型卫星组成,运行在1200公里的轨道上。 每颗卫星都能够提供至少每秒8千兆位的吞吐量,以使用其高吞吐量的Ku频段有效载荷为家庭和移动平台提供互联网接入。该卫星仍在工作。
2D轨道图
3D轨道图
轨道高度分析图
轨道倾角分析图
轨道综合分析图
查看轨道综合分析图